Location: Beneden-Haastrecht
(52.0012°N, 4.7557°E)
Time: 03:37:36
(UTC+00:00)

Cosmos 1825 - Pass Details

Date: 24 October 2020
Orbit: 502 x 508 km, 82.5° (Epoch: 27 November)

Event Time Altitude Azimuth Distance (km) Brightness Sun altitude
Rises 18:39:32 0° 352° (N) 2,631 6.0 -20.9°
Reaches altitude 10° 18:41:42 10° 356° (N) 1,739 5.0 -21.3°
Enters shadow 18:44:08 36° 13° (NNE) 831 3.1 -21.6°
